Regional Weather Roundup
Issued by NWS

Home | Current Version | Previous Version | Graphics & Text | Print | Product List | Glossary On
Versions: 1 2 3 4 5 6 7 8 9 10 11 12 13 14 15 16 17 18 19 20 21 22 23 24 25 26 27 28 29 30 31 32 33 34 35 36 37 38 39 40 41 42 43 44 45 46 47 48 49 50
000
ASUS43 KOAX 201902
RWRNE

WEATHER ROUNDUP FOR NEBRASKA
NATIONAL WEATHER SERVICE OMAHA NE
100 PM CST TUE FEB 20 2018

NOTES: SATELLITE DATA IS BEING USED TO AUGMENT CLOUD COVER ABOVE
       12000 FEET.
       "FAIR" INDICATES FEW OR NO CLOUDS BELOW 12,000 FEET WITH NO
       SIGNIFICANT WEATHER AND/OR OBSTRUCTIONS TO VISIBILITY.


NEZ001>004-019>022-054>056-202000-
NEBRASKA PANHANDLE

CITY           SKY/WX    TMP DP  RH WIND       PRES   REMARKS
SCOTTSBLUFF    FAIR       9  -3  58 W6        30.08S WCI  -1
ALLIANCE       FAIR       2  -6  69 W8        30.06S WCI -12
CHADRON        FAIR       1  -7  68 W5        30.14S WCI  -9
GORDON         FAIR       3  -6  65 W5        30.08S WCI  -6
KIMBALL        FAIR       4  -6  63 CALM      30.01S
SIDNEY         FAIR       8  -4  58 NW12      30.05S WCI  -7
$$

NEZ057>060-069>072-079>082-202000-
SOUTHWEST NEBRASKA

CITY           SKY/WX    TMP DP  RH WIND       PRES   REMARKS
NORTH PLATTE   FAIR      11  -1  58 NW18G24   30.13F WCI  -7
IMPERIAL       FAIR      12   0  58 N17       30.10F WCI  -5
LEXINGTON      FAIR      15   5  63 N21G26    30.13S WCI  -3
MCCOOK         FAIR      15   2  56 N21G29    30.12F WCI  -2
OGALLALA       FAIR      10  -1  62 NW15      30.11F WCI  -7
$$

NEZ005>010-023>029-035>040-094-202000-
NORTH CENTRAL NEBRASKA

CITY           SKY/WX    TMP DP  RH WIND       PRES   REMARKS
VALENTINE      FAIR       7  -3  64 NW12      30.15S WCI  -8
AINSWORTH      FAIR       8   0  71 NW16      30.14R WCI -10
BROKEN BOW     FAIR      10  -1  61 NW22      30.11F WCI -10
O`NEILL        FAIR       8   2  74 NW26      30.13F HAZE    WCI -14
ORD            FAIR      11   2  67 NW23G31   30.13S WCI  -9
THEDFORD       FAIR       9  -1  66 NW13G18   30.12F WCI  -7
$$

NEZ041-046>049-061>064-073>077-083>087-202000-
SOUTH CENTRAL NEBRASKA

CITY           SKY/WX    TMP DP  RH WIND       PRES   REMARKS
GRAND ISLAND   FAIR      16   4  59 N15G28    30.16R WCI   1
AURORA         CLOUDY    16   7  67 N21G28    30.16R WCI  -2
HASTINGS       FAIR      16   5  62 N20G30    30.15R WCI  -1
HEBRON         PTSUNNY   19  11  68 NW14G22   30.17R WCI   6
HOLDREGE       FAIR      17   6  63 NW15G24   30.13R WCI   2
KEARNEY        FAIR      16   5  62 N18       30.15R WCI   0
YORK           CLOUDY    16   9  73 N17G25    30.17R WCI   0
$$

NEZ011>018-030>034-042>045-202000-
NORTHEAST NEBRASKA

CITY           SKY/WX    TMP DP  RH WIND       PRES   REMARKS
NORFOLK        PTSUNNY   12   6  77 NW22G28   30.13R WCI  -7
ALBION         PTSUNNY   13   5  69 N18G30    30.15R WCI  -4
BLAIR          CLOUDY    18  13  79 NW10G17   30.13R WCI   6
COLUMBUS       FAIR      16   8  71 NW25      30.17R WCI  -3
FREMONT        CLOUDY    18  12  79 NW20G29   30.16R WCI   1
TEKAMAH        CLOUDY    17  10  74 NW24G32   30.16R WCI  -1
WAYNE          PTSUNNY   13   6  73 NW18G25   30.15R WCI  -5
$$

NEZ050>053-065>068-078-088>093-202000-
SOUTHEAST NEBRASKA

CITY           SKY/WX    TMP DP  RH WIND       PRES   REMARKS
LINCOLN        PTSUNNY   20  11  68 NW14G25   30.18R WCI   7
OMAHA EPPLEY   FLURRIES  19  13  77 NW15      30.15R WCI   5
BEATRICE       PTSUNNY   22  13  69 NW17G25   30.15S WCI   8
FALLS CITY     CLOUDY    22  15  75 NW16G25   30.13R WCI   8
NEBRASKA CITY  CLOUDY    20  17  85 NW20      30.12S WCI   5
PLATTSMOUTH    CLOUDY    19  14  82 NW21      30.11S WCI   2
$$

NEZ044-045-051>053-067-202000-
OMAHA AREA

CITY           SKY/WX    TMP DP  RH WIND       PRES   REMARKS
OMAHA EPPLEY   FLURRIES  19  13  77 NW15      30.15R WCI   5
BLAIR          CLOUDY    18  13  79 NW10G17   30.13R WCI   6
FREMONT        CLOUDY    18  12  79 NW20G29   30.16R WCI   1
MILLARD        CLOUDY    20  12  72 NW13      30.16R WCI   7
OFFUTT AFB     FLURRIES  19  10  68 NW16G24   30.13R WCI   5
PLATTSMOUTH    CLOUDY    19  14  82 NW21      30.11S WCI   2
WAHOO          CLOUDY    18  11  75 NW18G24   30.17R WCI   2
$$



USA.gov is the U.S. government's official web portal to all federal, state and local government web resources and services.